Regional Weather Roundup
Issued by NWS Mt. Holly, NJ

Current Version | Previous Version | Text Only | Print | Product List | Glossary On
Versions: 1 2 3 4 5 6 7 8 9 10 11 12 13 14 15 16 17 18 19 20 21 22 23 24 25 26 27 28 29 30 31 32 33 34 35 36 37 38 39 40 41 42 43 44 45 46 47 48 49 50
000
ASUS41 KPHI 211010
RWRPHI

REGIONAL WEATHER ROUNDUP
NATIONAL WEATHER SERVICE MOUNT HOLLY NJ
600 AM EDT TUE OCT 21 2014

NOTE:  "FAIR" INDICATES FEW OR NO CLOUDS BELOW 12,000 FEET WITH NO
SIGNIFICANT WEATHER AND/OR OBSTRUCTIONS TO VISIBILITY.

 * = STATION DOES NOT REPORT PRECIPITATION (E.G. RAIN, SNOW, ETC.)
        OR FOG.

NJZ015>026-211100-
SOUTHERN NEW JERSEY

CITY           SKY/WX    TMP DP  RH WIND       PRES   REMARKS
POMONA         MOCLDY    49  46  90 CALM      29.89S
RIO GRANDE*    MOCLDY    54  48  82 CALM      29.89F
MILLVILLE      MOCLDY    52  50  93 CALM      29.87F
WRIGHTSTOWN    CLOUDY    49  47  93 CALM      29.86F
MOUNT HOLLY    MOCLDY    48  46  93 CALM      29.87F
TRENTON        CLOUDY    49  45  86 SE5       29.88F

$$
NJZ001>014-211100-
NORTHERN NEW JERSEY

CITY           SKY/WX    TMP DP  RH WIND       PRES   REMARKS
SUSSEX         CLOUDY    49  45  86 CALM      29.89F
ANDOVER*         N/A     49  46  90 CALM      29.88F
MORRISTOWN     CLOUDY    46  43  87 CALM      29.90F
NEWARK         CLOUDY    55  45  68 CALM      29.90S
TETERBORO      CLOUDY    51  44  77 NW3       29.89F
CALDWELL       CLOUDY    47  42  83 CALM      29.90F
SOMERVILLE     LGT RAIN  47  44  90 NW3       29.87F
ALLAIRE*       CLOUDY    54  43  66 S5        29.88F
TOMS RIVER*    CLOUDY    48  45  87 CALM      29.89F

$$
PAZ043-044-047-054-055-060>062-066>071-211100-
EASTERN PENNSYLVANIA

CITY           SKY/WX    TMP DP  RH WIND       PRES   REMARKS
PHILADELPHIA   CLOUDY    53  48  83 CALM      29.87F
NORTH PHILA    MOCLDY    50  44  80 E3        29.89F
BLUE BELL      MOCLDY    50  48  93 CALM      29.86F
DOYLESTOWN     MOCLDY    48  47  96 CALM      29.87F
QUAKERTOWN*    MOCLDY    48  48 100 CALM      29.87F
POTTSTOWN      CLOUDY    51  47  86 CALM      29.88S
LANCASTER      CLOUDY    50  49  96 CALM      29.86S FOG
COATESVILLE    LGT RAIN  50  48  93 CALM      29.87S
READING        CLOUDY    52  50  93 CALM      29.85F
ALLENTOWN      CLOUDY    51  48  89 NE5       29.87S
MOUNT POCONO   CLOUDY    48  46  93 CALM      29.85F
HAZLETON       CLOUDY    50  46  87 CALM      29.87F
WILKES BARRE   CLOUDY    51  46  83 CALM      29.85S

$$
DEZALL-MDZ008-012-015-019-020-211100-
DELAWARE AND EASTERN MARYLAND

CITY           SKY/WX    TMP DP  RH WIND       PRES   REMARKS
WILMINGTON     LGT RAIN  52  49  89 NW7       29.88S
DOVER          PTCLDY    54  50  87 S5        29.84F
GEORGETOWN     CLOUDY    56  51  84 S3        29.88F
EASTON         PTCLDY    55  52  89 CALM      29.90S
PATUXENT       MOCLDY    57  48  72 SW7       29.86F
OCEAN CITY     CLOUDY    55  53  93 CALM      29.88F
WALLOPS ISLAND CLOUDY    59  56  89 SW3       29.88F
CAMBRIDGE      PTCLDY    55  52  88 CALM      29.86F
SALISBURY      CLOUDY    54  50  86 E3        29.88F

$$
PAZ001-021-NYZ056-072-MDZ011-DCZ001-211100-
OTHER NEARBY LOCATIONS

CITY           SKY/WX    TMP DP  RH WIND       PRES   REMARKS
HARRISBURG     MOCLDY    49  48  97 CALM      29.85S FOG
STATE COLLEGE  CLOUDY    46  45  93 CALM      29.83F
WILLIAMSPORT   CLOUDY    49  44  83 CALM      29.83S
BINGHAMTON     CLOUDY    47  42  83 SE6       29.83S
NEW YORK CITY  CLOUDY    56  45  66 CALM      29.92S
BALTIMORE      PTCLDY    49  48  97 CALM      29.86S
WASHINGTON DC  PTCLDY    56  48  74 SW3       29.87F

$$


USA.gov is the U.S. government's official web portal to all federal, state and local government web resources and services.